Theta_e
357 354 354 357 355 353 356 366 361 364 361 360 361 360 360 357 359 361 360 357 360 357
357 355 354 355 358 356 358 359 360 360 362 362 362 362 362 356 359 361 361 362 362 358
358 357 357 356 356 355 356 357 360 359 360 362 362 362 362 360 360 360 359 357 359 359
356 357 357 356 357 356 357 358 358 359 359 359 360 361 361 361 360 358 359 359 359 358
358 358 357 357 358 357 355 357 360 357 358 359 359 361 360 358 358 358 357 357 358 356
355 357 357 358 359 360 360 360 359 360 359 359 358 358 358 359 359 359 358 359 357 357
351 352 353 356 357 358 361 361 360 360 360 359 357 358 357 357 359 360 358 360 359 359
350 350 350 350 352 352 355 357 361 360 360 359 357 355 356 357 357 359 358 359 361 360
347 346 348 347 348 348 350 354 358 358 359 359 356 336 335 345 355 357 357 356 358 361
336 345 348 348 348 346 349 352 353 354 356 357 356 327 329 334 354 357 359 360 360 359
329 330 334 338 340 343 346 347 348 348 352 345 333 322 323 329 358 358 359 360 361 360
329 329 329 330 329 331 335 337 344 346 344 341 328 317 319 338 352 354 355 356 357 356
324 327 326 327 328 332 335 335 334 333 329 320 322 312 312 330 338 338 342 344 344 327
322 321 322 321 323 325 325 327 326 325 324 322 315 313 309 311 329 328 331 335 340 340
Wind_Speed
5 3 4 5 4 5 5 4 6 6 6 6 5 4 4 4 3 3 2 3 1 2
5 5 4 4 4 4 4 4 5 6 6 6 6 5 5 4 5 4 3 2 2 1
6 5 4 4 4 4 5 5 5 5 4 5 6 6 6 5 5 5 4 3 4 3
8 7 6 5 5 5 6 5 5 6 6 6 6 6 6 6 6 7 5 5 5 5
9 8 8 7 6 7 6 6 5 5 6 5 6 7 8 8 7 8 7 6 7 7
6 8 8 8 7 7 7 7 6 6 6 6 7 8 7 7 8 8 7 7 7 6
7 6 5 7 7 6 6 6 7 7 6 6 5 6 7 8 8 8 8 8 8 7
7 6 5 5 5 4 4 4 5 7 7 6 6 6 7 7 8 8 8 8 8 9
5 6 6 5 4 2 3 2 1 3 5 6 5 2 7 7 7 8 8 8 8 9
4 3 5 5 5 3 3 3 3 3 3 5 6 7 3 4 7 8 8 8 8 8
5 6 6 7 7 5 3 3 3 3 4 9 7 8 5 2 4 6 7 8 8 8
6 8 8 8 5 4 4 4 4 7 8 9 11 14 12 5 4 3 4 4 5 5
9 8 8 6 6 7 6 6 8 12 10 12 12 17 18 9 7 7 6 6 7 6
8 9 8 8 6 7 8 9 10 11 9 10 12 15 17 17 9 6 4 4 4 4
Wind_Direction
201 219 212 187 201 217 222 213 193 187 179 175 183 203 202 193 215 193 179 159 89 7
213 206 213 203 221 226 226 236 218 197 196 184 196 196 195 203 204 210 223 202 197 248
198 211 199 199 198 201 198 209 215 223 215 203 199 198 198 186 194 208 210 226 230 249
206 194 209 192 184 181 210 208 206 211 213 219 216 200 199 206 208 214 218 228 237 243
200 195 193 203 189 183 190 204 203 207 233 231 220 208 211 212 212 220 223 228 227 237
186 202 198 192 197 195 197 195 201 208 206 207 209 215 225 234 230 222 227 230 231 237
139 140 163 150 158 174 185 187 195 206 208 203 204 217 224 223 233 232 232 227 234 241
170 146 150 153 138 150 159 164 199 204 202 207 214 206 216 238 239 245 249 249 238 246
208 173 169 159 139 168 167 151 132 205 203 197 226 93 224 240 246 242 251 260 258 262
29 112 142 143 143 158 135 135 112 83 97 106 78 25 36 231 246 250 247 250 255 260
84 80 85 96 96 94 81 92 101 78 88 76 46 25 19 8 235 238 249 261 272 275
92 93 75 72 65 64 105 93 133 78 86 83 41 2 24 53 35 336 315 306 295 301
72 75 80 75 69 60 71 86 84 73 60 55 51 16 26 26 70 52 27 15 59 53
83 90 88 88 83 90 93 86 84 88 80 70 43 39 22 34 56 32 39 36 353 348